Florence, CO

12:55 PM MDT on July 28, 2016 (GMT -0600)
Canon City Fremont County

Weather History for K1V6 - January, 2014

Change the Weather History Date:

Tuesday, January 21, 2014

  Actual Average (KPUB) Record (KPUB)
Temperature  
Mean Temperature 49 °F 31 °F  
Max Temperature 66 °F 47 °F 75 °F (2009)
Min Temperature 28 °F 14 °F -16 °F (1930)
Degree Days  
Heating Degree Days 16 34  
Month to date heating degree days 728  
Since 1 July heating degree days 3091  
Cooling Degree Days 0 0  
Month to date cooling degree days 0  
Year to date cooling degree days 0  
Moisture  
Dew Point -2 °F    
Average Humidity 17    
Maximum Humidity 38    
Minimum Humidity 4    
Precipitation  
Precipitation 0.00 in 0.02 in 0.54 in (1898)
Month to date precipitation 0.24  
Year to date precipitation 0.24  
Snow  
Snow 0.00 in 0.20 in 5.80 in (1898)
Month to date snowfall 4.4  
Since 1 July snowfall 15.9  
Snow Depth -    
Sea Level Pressure  
Sea Level Pressure 30.21 in    
Wind  
Wind Speed 18 mph (WNW)    
Max Wind Speed 28 mph    
Max Gust Speed 38 mph    
Visibility 10 miles    
Events      
T = Trace of Precipitation, MM = Missing Value Source: NWS Daily Summary

Daily Weather History Graph

Daily Weather History Graph

Search for Another Location

Airport or City:

Trip Planner

Search our weather history database for the weather conditions in past years. The results will help you decide how hot, cold, wet, or windy it might be!

Date:

Astronomy

Jan. 21, 2014 Rise Set
Actual Time 7:13 AM MST 5:10 PM MST
Civil Twilight 6:44 AM MST 5:39 PM MST
Nautical Twilight 6:12 AM MST 6:11 PM MST
Astronomical Twilight 5:41 AM MST 6:42 PM MST
Moon 10:40 PM MST (1/21) 9:49 AM MST (1/21)
Length of Visible Light 10h 54m
Length of Day
9h 56m
Waning Gibbous, 74% of the Moon is Illuminated
Jan 21
Waning Gibbous
Jan 23
Last Quarter
Jan 30
New
Feb 6
First Quarter
Feb 14
Full

Hourly Weather History & Observations

Time (MST) Temp. Windchill Dew Point Humidity Pressure Visibility Wind Dir Wind Speed Gust Speed Precip Events Conditions
12:15 AM 35.6 °F 24.8 °F 12.2 °F 38% 30.35 in 10.0 mi WNW 19.6 mph - N/A   Clear
12:35 AM 37.4 °F 26.6 °F 10.4 °F 33% 30.35 in 10.0 mi WNW 21.9 mph 26.5 mph N/A   Clear
12:55 AM 37.4 °F 26.4 °F 10.4 °F 33% 30.35 in 10.0 mi WNW 23.0 mph - N/A   Clear
1:15 AM 35.6 °F 24.2 °F 10.4 °F 35% 30.34 in 10.0 mi WNW 21.9 mph - N/A   Clear
1:35 AM 35.6 °F 24.2 °F 8.6 °F 33% 30.33 in 10.0 mi WNW 21.9 mph 25.3 mph N/A   Clear
1:55 AM 35.6 °F 23.2 °F 8.6 °F 33% 30.33 in 10.0 mi WNW 26.5 mph 29.9 mph N/A   Clear
2:15 AM 35.6 °F 24.5 °F 8.6 °F 33% 30.35 in 10.0 mi WNW 20.7 mph - N/A   Clear
2:35 AM 35.6 °F 24.0 °F 6.8 °F 30% 30.35 in 10.0 mi WNW 23.0 mph - N/A   Clear
2:55 AM 35.6 °F 23.4 °F 5.0 °F 28% 30.34 in 10.0 mi WNW 25.3 mph 29.9 mph N/A   Clear
3:15 AM 35.6 °F 24.5 °F 5.0 °F 28% 30.33 in 10.0 mi West 20.7 mph - N/A   Clear
3:35 AM 33.8 °F 22.5 °F 5.0 °F 30% 30.32 in 10.0 mi WNW 19.6 mph - N/A   Clear
3:55 AM 35.6 °F 23.7 °F 5.0 °F 28% 30.32 in 10.0 mi WNW 24.2 mph 27.6 mph N/A   Clear
4:15 AM 35.6 °F 24.0 °F 5.0 °F 28% 30.31 in 10.0 mi WNW 23.0 mph - N/A   Clear
4:35 AM 35.6 °F 24.0 °F 6.8 °F 30% 30.31 in 10.0 mi WNW 23.0 mph - N/A   Clear
4:55 AM 35.6 °F 24.0 °F 5.0 °F 28% 30.31 in 10.0 mi WNW 23.0 mph 29.9 mph N/A   Clear
5:15 AM 33.8 °F 22.2 °F 3.2 °F 28% 30.30 in 10.0 mi WNW 20.7 mph - N/A   Clear
5:35 AM 35.6 °F 24.0 °F 3.2 °F 26% 30.30 in 10.0 mi WNW 23.0 mph - N/A   Clear
5:55 AM 37.4 °F 27.5 °F 1.4 °F 22% 30.31 in 10.0 mi WNW 18.4 mph - N/A   Clear
6:15 AM 37.4 °F 27.8 °F 3.2 °F 24% 30.30 in 10.0 mi WNW 17.3 mph - N/A   Clear
6:25 AM 37.4 °F 28.2 °F 3.2 °F 24% 30.30 in 10.0 mi WNW 16.1 mph - N/A   Clear
8:15 AM 42.8 °F 34.3 °F -0.4 °F 16% 30.27 in 10.0 mi WNW 19.6 mph - N/A   Clear
8:35 AM 42.8 °F 34.0 °F -0.4 °F 16% 30.28 in 10.0 mi WNW 20.7 mph - N/A   Clear
8:55 AM 44.6 °F 35.9 °F 1.4 °F 17% 30.28 in 10.0 mi WNW 23.0 mph 27.6 mph N/A   Clear
9:15 AM 44.6 °F 36.9 °F 1.4 °F 17% 30.28 in 10.0 mi WNW 18.4 mph 24.2 mph N/A   Clear
9:35 AM 46.4 °F 39.8 °F 3.2 °F 17% 30.27 in 10.0 mi WNW 16.1 mph - N/A   Clear
9:55 AM 50.0 °F - 1.4 °F 14% 30.26 in 10.0 mi West 17.3 mph - N/A   Clear
10:15 AM 53.6 °F - -2.2 °F 10% 30.25 in 10.0 mi WNW 17.3 mph - N/A   Clear
10:35 AM 55.4 °F - -4.0 °F 9% 30.24 in 10.0 mi West 17.3 mph - N/A   Clear
10:55 AM 57.2 °F - -4.0 °F 8% 30.23 in 10.0 mi West 17.3 mph - N/A   Clear
11:15 AM 59.0 °F - -0.4 °F 9% 30.21 in 10.0 mi West 18.4 mph - N/A   Clear
11:35 AM 60.8 °F - -2.2 °F 8% 30.20 in 10.0 mi West 15.0 mph 19.6 mph N/A   Clear
11:55 AM 62.6 °F - -4.0 °F 7% 30.18 in 10.0 mi West 15.0 mph - N/A   Clear
12:15 PM 64.4 °F - -5.8 °F 6% 30.16 in 10.0 mi West 15.0 mph 27.6 mph N/A   Clear
12:35 PM 64.4 °F - -7.6 °F 5% 30.14 in 10.0 mi West 19.6 mph 29.9 mph N/A   Clear
12:55 PM 66.2 °F - -9.4 °F 5% 30.13 in 10.0 mi West 21.9 mph 27.6 mph N/A   Clear
1:15 PM 66.2 °F - -13.0 °F 4% 30.13 in 10.0 mi WNW 20.7 mph 36.8 mph N/A   Clear
1:35 PM 66.2 °F - -13.0 °F 4% 30.11 in 10.0 mi WNW 27.6 mph 38.0 mph N/A   Clear
1:55 PM 66.2 °F - -9.4 °F 5% 30.11 in 10.0 mi WNW 25.3 mph 32.2 mph N/A   Clear
2:15 PM 66.2 °F - -9.4 °F 5% 30.11 in 10.0 mi WNW 26.5 mph 33.4 mph N/A   Clear
2:35 PM 66.2 °F - -11.2 °F 4% 30.11 in 10.0 mi WNW 23.0 mph 33.4 mph N/A   Clear
2:55 PM 66.2 °F - -9.4 °F 5% 30.10 in 10.0 mi WNW 20.7 mph 28.8 mph N/A   Clear
3:15 PM 64.4 °F - -13.0 °F 4% 30.11 in 10.0 mi WNW 16.1 mph 28.8 mph N/A   Clear
3:35 PM 64.4 °F - -13.0 °F 4% 30.11 in 10.0 mi WNW 20.7 mph 27.6 mph N/A   Clear
3:55 PM 64.4 °F - -11.2 °F 5% 30.12 in 10.0 mi West 11.5 mph 20.7 mph N/A   Clear
4:15 PM 62.6 °F - -9.4 °F 5% 30.12 in 10.0 mi West 18.4 mph - N/A   Clear
4:35 PM 60.8 °F - -7.6 °F 6% 30.12 in 10.0 mi West 5.8 mph 9.2 mph N/A   Clear
4:55 PM 57.2 °F - -9.4 °F 6% 30.11 in 10.0 mi West 9.2 mph - N/A   Clear
5:15 PM 53.6 °F - -9.4 °F 7% 30.11 in 10.0 mi West 11.5 mph - N/A   Clear
5:35 PM 50.0 °F - -9.4 °F 8% 30.12 in 10.0 mi NW 6.9 mph - N/A   Clear
5:55 PM 51.8 °F - -9.4 °F 8% 30.13 in 10.0 mi NW 9.2 mph - N/A   Clear
6:15 PM 50.0 °F - -7.6 °F 9% 30.13 in 10.0 mi NW 11.5 mph - N/A   Clear
6:35 PM 50.0 °F - -5.8 °F 10% 30.13 in 10.0 mi NNW 9.2 mph - N/A   Clear
6:55 PM 50.0 °F - -5.8 °F 10% 30.13 in 10.0 mi WNW 10.4 mph - N/A   Clear
7:15 PM 42.8 °F 37.5 °F -4.0 °F 14% 30.13 in 10.0 mi NW 9.2 mph - N/A   Clear
7:35 PM 44.6 °F 39.7 °F -5.8 °F 12% 30.12 in 10.0 mi NW 9.2 mph - N/A   Clear
7:55 PM 37.4 °F 28.9 °F -4.0 °F 17% 30.12 in 10.0 mi West 13.8 mph - N/A   Clear
8:15 PM 39.2 °F 31.2 °F -0.4 °F 19% 30.14 in 10.0 mi WNW 13.8 mph - N/A   Clear
8:35 PM 39.2 °F 35.9 °F -0.4 °F 19% 30.15 in 10.0 mi South 4.6 mph - N/A   Clear
8:55 PM 41.0 °F - -2.2 °F 16% 30.15 in 10.0 mi Calm Calm - N/A   Clear
9:15 PM 42.8 °F - -2.2 °F 15% 30.17 in 10.0 mi Calm Calm - N/A   Clear
9:35 PM 37.4 °F 32.8 °F -4.0 °F 17% 30.18 in 10.0 mi South 5.8 mph - N/A   Clear
9:55 PM 33.8 °F 30.8 °F -0.4 °F 23% 30.19 in 10.0 mi SSW 3.5 mph - N/A   Clear
10:15 PM 37.4 °F - -0.4 °F 20% 30.19 in 10.0 mi Calm Calm - N/A   Clear
10:35 PM 33.8 °F 29.6 °F -0.4 °F 23% 30.19 in 10.0 mi North 4.6 mph - N/A   Clear
10:55 PM 32.0 °F 24.8 °F -0.4 °F 25% 30.19 in 10.0 mi North 8.1 mph - N/A   Clear
11:15 PM 32.0 °F 24.2 °F 1.4 °F 27% 30.19 in 10.0 mi North 9.2 mph - N/A   Clear
11:35 PM 32.0 °F 27.5 °F -0.4 °F 25% 30.19 in 10.0 mi WSW 4.6 mph - N/A   Clear
11:55 PM 28.4 °F 23.3 °F -0.4 °F 29% 30.19 in 10.0 mi West 4.6 mph - N/A   Clear